Regional Weather Roundup
Issued by NWS Charleston, SC

Home | Current Version | Previous Version | Text Only | Print | Product List | Glossary On
Versions: 1 2 3 4 5 6 7 8 9 10 11 12 13 14 15 16 17 18 19 20 21 22 23 24 25 26 27 28 29 30 31 32 33 34 35 36 37 38 39 40 41 42 43 44 45 46 47 48 49 50
000
ASUS42 KCHS 190525
RWRCHS

REGIONAL WEATHER ROUNDUP
NATIONAL WEATHER SERVICE CHARLESTON SC
100 AM EDT FRI SEP 19 2014

NOTE: "FAIR" INDICATES FEW OR NO CLOUDS BELOW 12,000 FEET WITH NO
SIGNIFICANT WEATHER AND/OR OBSTRUCTIONS TO VISIBILITY.

NOT ALL STATIONS ARE QUALITY CONTROLLED BY THE NATIONAL
WEATHER SERVICE. USE DATA WITH CAUTION...ESPECIALLY
DEWPOINT OBSERVATIONS.

SCZ027-030-031-034>040-042>050-190600-
...SOUTH CAROLINA...

CITY           SKY/WX    TMP DP  RH WIND       PRES   REMARKS
N CHARLESTON   PTCLDY    73  70  90 NE5       29.99F
WATERFRONT PRK   N/A     79 N/A N/A NE5         N/A
FORT JOHNSON   NOT AVBL
MOUNT PLEASANT FAIR      72  72 100 CALM      29.99S FOG
JOHNS ISLAND   CLEAR     73  73 100 CALM      29.99S
PINOPOLIS        N/A     75  70  83 E6        29.93F
MONCKS CORNER    N/A     72  72 100 CALM      30.00S
SUMMERVILLE    FAIR      70  70 100 CALM      30.00F
BEAUFORT MCAS  CLEAR     73  70  90 W3        29.98F
BEAUFORT ARPT  FAIR      72  72 100 CALM      29.98S
HILTON HEAD IS PTCLDY    77  72  83 E5        29.99S
GEORGETOWN     NOT AVBL
WALTERBORO     PTCLDY    70 N/A N/A CALM      30.00F
ORANGEBURG     PTCLDY    71  67  87 CALM      30.01S
BARNWELL       FAIR      70  70 100 CALM      30.00F
AIKEN          FAIR      70  70 100 CALM      30.05R
MANNING        FAIR      70 N/A N/A E3        30.00F
KINGSTREE      NOT AVBL
COLUMBIA       PTCLDY    70  66  87 E3        30.00S
SUMTER         PTCLDY    71  66  85 E3        30.00F
FLORENCE       PTCLDY    70  65  84 E7        30.02S
MYRTLE BEACH   PTCLDY    79  64  61 E15G22    30.01S
N MYRTLE BEACH CLEAR     70  64  81 NE7       30.01F

$$

GAZ063-065-086>088-099>101-113>116-118-119-134-136>141-150-190600-
...GEORGIA...

CITY           SKY/WX    TMP DP  RH WIND       PRES   REMARKS
SAVANNAH ARPT  CLEAR     72  68  87 N3        29.99R
HUNTER AAF     PTCLDY    74  72  92 N2        29.96S
FORT STEWART   PTCLDY    72  70  94 CALM      29.96F
STATESBORO     NOT AVBL
SYLVANIA       HVY RAIN  75  73  96 SE9       30.01S
CLAXTON        FAIR     N/A N/A N/A CALM      29.98F HAZE
THOMSON        PTCLDY    69  69 100 CALM      30.06S
AUGUSTA-BUSH   PTCLDY    66  66 100 CALM      30.00S
AUGUSTA-DANIEL PTCLDY    73  67  81 CALM      30.01S
SWAINSBORO     FAIR      70  70 100 CALM      30.00F
VIDALIA        PTCLDY    72  72 100 CALM      29.99S
ALMA           CLOUDY    72  70  93 CALM      29.96F
WAYCROSS       MOCLDY    76  75  97 CALM      29.96F
JESUP          FAIR      77  73  88 CALM      29.97S
BRUNSWICK      CLOUDY    73  72  94 CALM      29.97S
SAINT SIMONS   CLOUDY    80  70  71 SE3       29.96S

$$

SCZ027-028-034-036>038-045-046-048>050-GAZ119-141-190600-
...LAKE AND SUPPLEMENTAL COASTAL OBSERVATIONS...

STATION/POSITION TIME  TEMP    WIND        PRES    WAVE   SWELL
                       AIR SEA DIR/SP/G            HT/PER HT/PER/DIR
                 (UTC) (F)     (DEG/KT/KT) (MB)    (FT/S) (FT/S/D)
UPR LAKE MARION  NOT AVBL
WINYAH BAY       0500   78     100/ 12     1016.0R
LAKE MURRAY      0400   73      70/  2/  4 1015.6S
ACE BASIN NERRS  0500   71        CALM     1015.0S
FORT PULASKI     0500   78      20/ 11/ 17 1015.4R
SAPELO ISLAND    0500   77        CALM     1015.0S

$$

ANZ835-935-AMZ111-154-330-350-352-354-374-450-454-472-190600-
...C-MAN AND BUOY OBSERVATIONS...

STATION/POSITION TIME  TEMP    WIND        PRES    WAVE   SWELL
                       AIR SEA DIR/SP/G            HT/PER HT/PER/DIR
                 (UTC) (F)     (DEG/KT/KT) (MB)    (FT/S) (FT/S/D)
FOLLY BEACH CMAN 0500   80      90/  7/  8 1015.7F
BUOY 41004       0500   80 83   90/  8/ 10 1014.7F   3/11   3/11
BUOY 41008       0500   82 84  160/  8/ 10 1014.7R   2/10   2/ 80/10
5E ST. MARYS GA  0500      84                N/A     2/13   2/ 90/13
FRYING PAN BUOY  NOT AVBL
BUOY 41025       0500   73      10/ 14/ 16 1017.3F   4/11   3/ 50/11
CAPE LOOKOUT NC  0500   76      60/ 14/ 17 1017.4R
BUOY 41002       0415   79 82   80/ 12/ 14 1015.9    4/10   3/ 90/10
BUOY 41010       0500   82 85   80/  8/  8 1014.2R   3/11   3/ 30/11
BUOY 41012       NOT AVBL
ST AUGUSTINE FL  0500   78     220/  3/  3 1014.8F
CAPERS NEARSHORE 0400   80     110/ 10/ 12   N/A
FRIPP NEARSHORE  NOT AVBL


$$


USA.gov is the U.S. government's official web portal to all federal, state and local government web resources and services.